Location: Betpouey
(42.8833°N, 0.0333°E)
Time: 08:00:45
(UTC+00:00)

CZ-2C R/B - Pass Details

Date: 01 December 2020
Orbit: 705 x 907 km, 98.1° (Epoch: 17 January)

Event Time Altitude Azimuth Distance (km) Brightness Sun altitude
Rises 18:53:04 0° 176° (S) 3,241 6.3 -26.2°
Reaches altitude 10° 18:55:27 10° 180° (S) 2,288 5.5 -26.6°
Maximum altitude 19:00:23 58° 259° (W) 861 3.4 -27.5°
Drops below altitude 10° 19:05:09 10° 339° (NNW) 2,211 5.5 -28.4°
Sets 19:07:26 0° 343° (NNW) 3,122 6.3 -28.8°
